Hartsfield Jackson Atlanta International Airport Atlanta US
ICAO: KATL
IATA: ATL
Category: Large
Scheduled Services: Yes

Elevation: 1026 ft
TransAlt. 18000 ft.

Airport Communications:
ATLANTA APP:118.35
ATIS:119.65
CLNC DEL:118.1
ATLANTA DEP:125
GND:121.65
MACON RDO:116.9
SFA:30.697
ATLANTA TWR:119.1
UNICOM:122.95

KATL Zoom In..

Runways:

(A) RW 08L length 9000 ft width 150 ft
ILS 109.30 / hdg 95

(B) RW 08R length 10000 ft width 150 ft
ILS 109.90 / hdg 95

(C) RW 09L length 12390 ft width 150 ft
ILS 110.50 / hdg 95

(D) RW 09R length 9000 ft width 150 ft
ILS 108.90 / hdg 95

(E) RW 10 length 9000 ft width 150 ft
ILS 111.55 / hdg 95

(F) RW 26L length 10000 ft width 150 ft
ILS 108.70 / hdg 275

(G) RW 26R length 9000 ft width 150 ft
ILS 110.10 / hdg 275

(H) RW 27L length 9000 ft width 150 ft
ILS 108.50 / hdg 275

(I) RW 27R length 12390 ft width 150 ft
ILS 111.30 / hdg 275

(J) RW 28 length 9000 ft width 150 ft
ILS 111.75 / hdg 275

Location; KATL
Day. 30 / Time. 21.52 Zulu
* Altimeter: 30.00
* Temperature: 29° c. 84.2°f.
* Wind from: 290° Speed 10 kn.
Dewpoint: 16° c.
Visibility: 10 Statute Miles.
Clouds: Scattered 6000 ft.
Clouds: Scattered 7000 ft.
Clouds: Scattered 25000 ft.

KATL 302152Z 29010KT 10SM SCT060 SCT070 SCT250 29/16 A3000 RMK AO2 SLP148 T02940156


Wind From 290°
Speed 10 kn.

 
 
jpsmedia worldairports.se 2020   terms of use